Weather History for Pipestone, MN

Change the Weather History Date:

Thursday, January 10, 2013

  Actual Average Record
Temperature  
Mean Temperature 32 °F -  
Max Temperature 35 °F 22 °F 53 °F (2012)
Min Temperature 28 °F 6 °F -13 °F (1997)
Degree Days  
Heating Degree Days 34    
Moisture  
Dew Point 29 °F    
Average Humidity 85    
Maximum Humidity 100    
Minimum Humidity 65    
Precipitation  
Precipitation 0.03 in - - ()
Sea Level Pressure  
Sea Level Pressure 29.92 in    
Wind  
Wind Speed 17 mph (South)    
Max Wind Speed 21 mph    
Max Gust Speed 25 mph    
Visibility 8 miles    
Events Rain    
Averages and records for this station are not official NWS values.
T = Trace of Precipitation, MM = Missing Value Source: NWS Daily Summary

Daily Weather History Graph

Daily Weather History Graph

Search for Another Location

Airport:

Trip Planner

Search our weather history database for the weather conditions in past years. The results will help you decide how hot, cold, wet, or windy it might be!

Date:

Astronomy

Jan. 10, 2013 Rise Set
Actual Time 7:58 AM CST 5:07 PM CST
Civil Twilight 7:26 AM CST 5:39 PM CST
Nautical Twilight 6:50 AM CST 6:15 PM CST
Astronomical Twilight 6:15 AM CST 6:50 PM CST
Moon 6:39 AM CST (1/10) 4:16 PM CST (1/10)
Length of Visible Light 10h 13m
Length of Day
9h 08m
Waning Crescent, 2% of the Moon is Illuminated
Jan 10
Waning Crescent
Jan 11
New
Jan 18
First Quarter
Jan 26
Full
Feb 3
Last Quarter

Hourly Weather History & Observations

Time (CST) Temp. Windchill Dew Point Humidity Pressure Visibility Wind Dir Wind Speed Gust Speed Precip Events Conditions
12:14 AM 32.0 °F 20.1 °F 28.4 °F 87% 30.18 in 10.0 mi South 19.6 mph - N/A   Clear
12:33 AM 33.8 °F 22.2 °F 28.4 °F 81% 30.18 in 10.0 mi South 20.7 mph - N/A   Clear
12:53 AM 33.8 °F 22.5 °F 28.4 °F 81% 30.18 in 10.0 mi South 19.6 mph - N/A   Clear
1:13 AM 33.8 °F 22.8 °F 28.4 °F 81% 30.17 in 10.0 mi SSW 18.4 mph - N/A   Clear
1:33 AM 32.0 °F 21.2 °F 28.4 °F 87% 30.17 in 10.0 mi SSW 16.1 mph - N/A   Clear
1:53 AM 32.0 °F 22.1 °F 26.6 °F 80% 30.17 in 10.0 mi SSW 13.8 mph - N/A   Clear
2:14 AM 32.0 °F 20.8 °F 28.4 °F 87% 30.17 in 10.0 mi SSW 17.3 mph - N/A   Clear
2:33 AM 32.0 °F 23.0 °F 26.6 °F 80% 30.17 in 10.0 mi SSW 11.5 mph - N/A   Clear
2:53 AM 33.8 °F 23.2 °F 28.4 °F 81% 30.17 in 10.0 mi SSW 17.3 mph - N/A   Clear
3:14 AM 33.8 °F 23.2 °F 28.4 °F 81% 30.16 in 10.0 mi SSW 17.3 mph - N/A   Clear
3:33 AM 33.8 °F 23.2 °F 28.4 °F 81% 30.16 in 10.0 mi SSW 17.3 mph - N/A   Clear
3:53 AM 33.8 °F 23.9 °F 28.4 °F 81% 30.16 in 10.0 mi SSW 15.0 mph - N/A   Clear
4:14 AM 33.8 °F 23.2 °F 28.4 °F 81% 30.15 in 10.0 mi SSW 17.3 mph - N/A   Clear
4:33 AM 32.0 °F 21.2 °F 26.6 °F 80% 30.14 in 10.0 mi SSW 16.1 mph - N/A   Clear
4:53 AM 32.0 °F 20.8 °F 26.6 °F 80% 30.13 in 10.0 mi SSW 17.3 mph - N/A   Clear
5:14 AM 32.0 °F 21.6 °F 26.6 °F 80% 30.13 in 10.0 mi SSW 15.0 mph - N/A   Clear
5:33 AM 30.2 °F 18.1 °F 26.6 °F 86% 30.13 in 10.0 mi SSW 18.4 mph - N/A   Clear
6:14 AM 33.8 °F 22.8 °F 28.4 °F 81% 30.11 in 10.0 mi South 18.4 mph - N/A   Clear
6:33 AM 32.0 °F 20.5 °F 26.6 °F 80% 30.10 in 10.0 mi SSW 18.4 mph - N/A   Clear
6:53 AM 32.0 °F 20.8 °F 26.6 °F 80% 30.09 in 10.0 mi SSW 17.3 mph - N/A   Clear
7:33 AM 28.4 °F 17.0 °F 24.8 °F 86% 30.09 in 10.0 mi SSW 15.0 mph - N/A   Clear
7:54 AM 28.4 °F 17.0 °F 24.8 °F 86% 30.10 in 10.0 mi South 15.0 mph - N/A   Clear
8:13 AM 28.4 °F 17.5 °F 24.8 °F 86% 30.10 in 10.0 mi South 13.8 mph - N/A   Clear
8:34 AM 28.4 °F 17.0 °F 24.8 °F 86% 30.09 in 10.0 mi South 15.0 mph - N/A   Clear
8:53 AM 28.4 °F 15.4 °F 24.8 °F 86% 30.07 in 10.0 mi South 19.6 mph - N/A   Clear
9:13 AM 30.2 °F 18.1 °F 23.0 °F 75% 30.07 in 10.0 mi South 18.4 mph - N/A   Clear
9:33 AM 30.2 °F 18.9 °F 21.2 °F 69% 30.07 in 10.0 mi South 16.1 mph - N/A   Clear
9:54 AM 30.2 °F 19.3 °F 21.2 °F 69% 30.06 in 10.0 mi South 15.0 mph - N/A   Clear
10:13 AM 28.4 °F 17.5 °F 21.2 °F 74% 30.05 in 10.0 mi South 13.8 mph - N/A   Clear
10:33 AM 30.2 °F 21.3 °F 21.2 °F 69% 30.04 in 10.0 mi South 10.4 mph - N/A   Clear
10:54 AM 30.2 °F 21.9 °F 23.0 °F 75% 30.02 in 10.0 mi SSE 9.2 mph - N/A   Clear
11:13 AM 32.0 °F 23.6 °F 23.0 °F 69% 30.01 in 10.0 mi South 10.4 mph - N/A   Clear
12:13 PM 33.8 °F 24.3 °F 24.8 °F 70% 29.95 in 10.0 mi South 13.8 mph 17.3 mph N/A   Clear
12:33 PM 33.8 °F 24.8 °F 24.8 °F 70% 29.93 in 10.0 mi South 12.7 mph - N/A   Clear
1:13 PM 35.6 °F 27.1 °F 24.8 °F 65% 29.90 in 10.0 mi South 12.7 mph - N/A   Mostly Cloudy
1:33 PM 33.8 °F 24.8 °F 24.8 °F 70% 29.90 in 10.0 mi South 12.7 mph 18.4 mph N/A   Overcast
2:13 PM 33.8 °F 24.3 °F 28.4 °F 81% 29.88 in 5.0 mi South 13.8 mph - N/A Rain Light Rain
2:34 PM 33.8 °F 24.3 °F 32.0 °F 93% 29.87 in 4.0 mi South 13.8 mph 20.7 mph 0.01 in   Overcast
2:53 PM 33.8 °F 25.3 °F 32.0 °F 93% 29.86 in 10.0 mi South 11.5 mph - N/A   Overcast
3:13 PM 33.8 °F 24.8 °F 32.0 °F 93% 29.85 in 10.0 mi South 12.7 mph 18.4 mph 0.01 in   Overcast
3:34 PM 33.8 °F 25.3 °F 30.2 °F 87% 29.83 in 10.0 mi South 11.5 mph - N/A   Overcast
3:53 PM 33.8 °F 24.3 °F 30.2 °F 87% 29.82 in 10.0 mi SSE 13.8 mph - N/A   Mostly Cloudy
4:13 PM 33.8 °F 23.9 °F 30.2 °F 87% 29.80 in 10.0 mi SSE 15.0 mph 19.6 mph N/A   Mostly Cloudy
4:34 PM 33.8 °F 23.2 °F 30.2 °F 87% 29.78 in 10.0 mi SSE 17.3 mph - N/A   Scattered Clouds
4:53 PM 33.8 °F 23.2 °F 30.2 °F 87% 29.76 in 10.0 mi SSE 17.3 mph 21.9 mph N/A   Scattered Clouds
5:13 PM 33.8 °F 22.8 °F 30.2 °F 87% 29.74 in 10.0 mi SSE 18.4 mph 23.0 mph N/A   Mostly Cloudy
5:34 PM 33.8 °F 22.8 °F 30.2 °F 87% 29.74 in 7.0 mi SSE 18.4 mph 21.9 mph 0.01 in   Overcast
5:53 PM 33.8 °F 23.9 °F 30.2 °F 87% 29.72 in 7.0 mi SSE 15.0 mph 24.2 mph 0.01 in   Overcast
6:14 PM 33.8 °F 23.2 °F 32.0 °F 93% 29.74 in 10.0 mi South 17.3 mph 23.0 mph N/A   Overcast
6:33 PM 33.8 °F 23.2 °F 32.0 °F 93% 29.72 in 10.0 mi South 17.3 mph 23.0 mph N/A   Overcast
6:53 PM 33.8 °F 22.8 °F 30.2 °F 87% 29.71 in 7.0 mi South 18.4 mph 23.0 mph N/A   Overcast
7:14 PM 33.8 °F 23.5 °F 30.2 °F 87% 29.69 in 10.0 mi South 16.1 mph - N/A   Overcast
7:33 PM 33.8 °F 23.9 °F 30.2 °F 87% 29.69 in 5.0 mi South 15.0 mph 25.3 mph N/A   Overcast
7:53 PM 33.8 °F 23.9 °F 32.0 °F 93% 29.68 in 1.8 mi South 15.0 mph - N/A   Overcast
8:13 PM 33.8 °F 23.5 °F 32.0 °F 93% 29.68 in 2.0 mi South 16.1 mph 21.9 mph N/A   Overcast
8:33 PM 33.8 °F 23.9 °F 32.0 °F 93% 29.67 in 1.5 mi South 15.0 mph - N/A   Overcast
8:53 PM 33.8 °F 23.5 °F 32.0 °F 93% 29.66 in 1.0 mi South 16.1 mph - N/A   Overcast
9:14 PM 33.8 °F 23.2 °F 32.0 °F 93% 29.65 in 1.0 mi South 17.3 mph - N/A   Overcast
9:33 PM 33.8 °F 22.5 °F 33.8 °F 100% 29.64 in 1.2 mi South 19.6 mph - N/A   Overcast
9:53 PM 33.8 °F 22.5 °F 33.8 °F 100% 29.62 in 1.2 mi South 19.6 mph 24.2 mph N/A   Overcast
10:14 PM 33.8 °F 22.5 °F 33.8 °F 100% 29.62 in 1.8 mi SSW 19.6 mph - N/A   Overcast
10:33 PM 33.8 °F 22.2 °F 33.8 °F 100% 29.61 in 1.5 mi SSW 20.7 mph - N/A   Overcast
10:53 PM 33.8 °F 22.8 °F 33.8 °F 100% 29.60 in 1.2 mi SSW 18.4 mph - N/A   Overcast
11:13 PM 33.8 °F 23.5 °F 33.8 °F 100% 29.59 in 1.0 mi SSW 16.1 mph - N/A   Overcast
11:33 PM 33.8 °F 23.5 °F 33.8 °F 100% 29.58 in 1.0 mi South 16.1 mph - N/A   Overcast
11:53 PM 33.8 °F 23.2 °F 33.8 °F 100% 29.56 in 0.8 mi South 17.3 mph - N/A   Overcast